| time (UTC) | temp F | wind direction | speed knots | gust knots | rain 1hr in | rain 24hr in | rain mn in | humidity % | barometer mb |
| 20260504050657 | 44 | 124 | 2.6 | 4.3 | 0.00 | 0.00 | 0.00 | 53 | 926.8 |
| 20260504050154 | 45 | 127 | 3.5 | 4.3 | 0.00 | 0.00 | 0.00 | 51 | 927.0 |
| 20260504045652 | 45 | 124 | 4.3 | 5.2 | 0.00 | 0.00 | 0.00 | 51 | 926.7 |
| 20260504045151 | 45 | 124 | 3.5 | 6.1 | 0.00 | 0.00 | 0.00 | 50 | 926.9 |
| 20260504044649 | 45 | 132 | 4.3 | 7.0 | 0.00 | 0.00 | 0.00 | 49 | 926.9 |
| 20260504044146 | 46 | 133 | 4.3 | 6.1 | 0.00 | 0.00 | 0.00 | 49 | 927.0 |
| 20260504043643 | 46 | 138 | 5.2 | 6.1 | 0.00 | 0.00 | 0.00 | 47 | 927.0 |
| 20260504043140 | 46 | 128 | 5.2 | 7.0 | 0.00 | 0.00 | 0.00 | 47 | 927.1 |
| 20260504042638 | 47 | 138 | 2.6 | 2.6 | 0.00 | 0.00 | 0.00 | 46 | 927.2 |
| 20260504042134 | 47 | 125 | 1.7 | 2.6 | 0.00 | 0.00 | 0.00 | 46 | 927.1 |
| 20260504041630 | 48 | 125 | 1.7 | 4.3 | 0.00 | 0.00 | 0.00 | 44 | 926.8 |
| 20260504041126 | 48 | 132 | 0.0 | 0.0 | 0.00 | 0.00 | 0.00 | 44 | 926.9 |
| 20260504040624 | 48 | 118 | 0.0 | 0.0 | 0.00 | 0.00 | 0.00 | 43 | 926.7 |
| 20260504040120 | 49 | 137 | 0.0 | 0.0 | 0.00 | 0.00 | 0.00 | 43 | 926.8 |
| 20260504035617 | 49 | 100 | 0.0 | 0.0 | 0.00 | 0.00 | 0.00 | 43 | 926.8 |
| 20260504035114 | 49 | 108 | 0.0 | 0.0 | 0.00 | 0.00 | 0.00 | 44 | 926.9 |
| 20260504034612 | 50 | 103 | 0.0 | 0.0 | 0.00 | 0.00 | 0.00 | 44 | 926.8 |
| 20260504034108 | 51 | 123 | 0.0 | 0.0 | 0.00 | 0.00 | 0.00 | 43 | 926.9 |
| 20260504033606 | 51 | 74 | 0.0 | 0.0 | 0.00 | 0.00 | 0.00 | 41 | 926.8 |
| 20260504033103 | 52 | 74 | 0.0 | 0.0 | 0.00 | 0.00 | 0.00 | 39 | 926.7 |
| 20260504032600 | 52 | 76 | 0.0 | 0.0 | 0.00 | 0.00 | 0.00 | 38 | 926.5 |
| 20260504032057 | 52 | 70 | 0.0 | 0.0 | 0.00 | 0.00 | 0.00 | 35 | 926.7 |
| 20260504031554 | 54 | 82 | 0.0 | 0.0 | 0.00 | 0.00 | 0.00 | 34 | 926.7 |
| 20260504031050 | 54 | 83 | 0.0 | 0.0 | 0.00 | 0.00 | 0.00 | 33 | 926.5 |
| 20260504030548 | 54 | 104 | 0.0 | 0.0 | 0.00 | 0.00 | 0.00 | 32 | 926.3 |
| 20260504030043 | 53 | 80 | 0.0 | 0.0 | 0.00 | 0.00 | 0.00 | 35 | 926.3 |
| 20260504025541 | 54 | 100 | 0.0 | 0.0 | 0.00 | 0.00 | 0.00 | 34 | 926.4 |
| 20260504025037 | 56 | 88 | 2.6 | 4.3 | 0.00 | 0.00 | 0.00 | 34 | 926.3 |
| 20260504024535 | 57 | 43 | 0.0 | 0.0 | 0.00 | 0.00 | 0.00 | 33 | 926.4 |
| 20260504024031 | 57 | 41 | 0.0 | 0.0 | 0.00 | 0.00 | 0.00 | 31 | 926.4 |
| 20260504023528 | 58 | 11 | 0.0 | 0.0 | 0.00 | 0.00 | 0.00 | 31 | 926.4 |
| 20260504023024 | 59 | 20 | 0.0 | 0.0 | 0.00 | 0.00 | 0.00 | 30 | 926.1 |
| 20260504022520 | 59 | 17 | 0.0 | 0.0 | 0.00 | 0.00 | 0.00 | 29 | 926.3 |
| 20260504022017 | 60 | 22 | 0.0 | 0.0 | 0.00 | 0.00 | 0.00 | 28 | 926.3 |
| 20260504021514 | 60 | 18 | 0.0 | 0.0 | 0.00 | 0.00 | 0.00 | 27 | 926.3 |
| 20260504021011 | 61 | 16 | 0.0 | 0.0 | 0.00 | 0.00 | 0.00 | 26 | 926.4 |
| 20260504020508 | 62 | 9 | 0.9 | 1.7 | 0.00 | 0.00 | 0.00 | 25 | 926.2 |
| 20260504020004 | 62 | 4 | 0.0 | 0.0 | 0.00 | 0.00 | 0.00 | 26 | 926.3 |
| 20260504015500 | 62 | 25 | 0.0 | 0.0 | 0.00 | 0.00 | 0.00 | 24 | 926.4 |
| 20260504014956 | 62 | 28 | 0.0 | 0.0 | 0.00 | 0.00 | 0.00 | 24 | 926.7 |
| 20260504014452 | 63 | 14 | 0.0 | 0.0 | 0.00 | 0.00 | 0.00 | 24 | 926.5 |
| 20260504013950 | 63 | 16 | 0.0 | 0.0 | 0.00 | 0.00 | 0.00 | 23 | 926.8 |
| 20260504013448 | 64 | 342 | 0.0 | 0.0 | 0.00 | 0.00 | 0.00 | 23 | 926.8 |
| 20260504012944 | 64 | 0 | 0.0 | 0.0 | 0.00 | 0.00 | 0.00 | 23 | 926.9 |
| 20260504012442 | 64 | 304 | 1.7 | 2.6 | 0.00 | 0.00 | 0.00 | 21 | 926.9 |
| 20260504011940 | 65 | 301 | 2.6 | 7.0 | 0.00 | 0.00 | 0.00 | 21 | 926.9 |
| 20260504011436 | 65 | 328 | 0.9 | 2.6 | 0.00 | 0.00 | 0.00 | 20 | 927.2 |
| 20260504010932 | 65 | 7 | 0.0 | 0.9 | 0.00 | 0.00 | 0.00 | 21 | 927.1 |
| 20260504010428 | 65 | 4 | 0.0 | 0.9 | 0.00 | 0.00 | 0.00 | 21 | 927.2 |
| 20260504005924 | 65 | 340 | 0.0 | 5.2 | 0.00 | 0.00 | 0.00 | 21 | 927.2 |
| 20260504005421 | 65 | 318 | 1.7 | 5.2 | 0.00 | 0.00 | 0.00 | 21 | 927.2 |
| 20260504004919 | 66 | 327 | 4.3 | 6.1 | 0.00 | 0.00 | 0.00 | 20 | 927.1 |
| 20260504004416 | 66 | 323 | 0.9 | 1.7 | 0.00 | 0.00 | 0.00 | 20 | 927.2 |
| 20260504003913 | 65 | 306 | 1.7 | 7.8 | 0.00 | 0.00 | 0.00 | 20 | 927.1 |
| 20260504003409 | 66 | 312 | 2.6 | 9.6 | 0.00 | 0.00 | 0.00 | 19 | 927.1 |
| 20260504002906 | 66 | 321 | 2.6 | 12.2 | 0.00 | 0.00 | 0.00 | 20 | 927.2 |
| 20260504002403 | 66 | 350 | 5.2 | 7.8 | 0.00 | 0.00 | 0.00 | 20 | 927.3 |
| 20260504001900 | 67 | 305 | 2.6 | 6.1 | 0.00 | 0.00 | 0.00 | 19 | 927.6 |
| 20260504001358 | 67 | 308 | 4.3 | 8.7 | 0.00 | 0.00 | 0.00 | 19 | 927.7 |
| 20260504000854 | 68 | 322 | 6.1 | 7.0 | 0.00 | 0.00 | 0.00 | 19 | 927.8 |
| 20260504000353 | 68 | 306 | 7.8 | 13.0 | 0.00 | 0.00 | 0.00 | 18 | 927.7 |
| 20260503235849 | 68 | 329 | 7.0 | 13.0 | 0.00 | 0.00 | 0.00 | 18 | 927.6 |
| 20260503235347 | 67 | 319 | 7.8 | 11.3 | 0.00 | 0.00 | 0.00 | 20 | 927.5 |
| 20260503234844 | 67 | 260 | 3.5 | 7.8 | 0.00 | 0.00 | 0.00 | 20 | 927.7 |
| 20260503234341 | 68 | 261 | 2.6 | 9.6 | 0.00 | 0.00 | 0.00 | 19 | 927.7 |
| 20260503233839 | 68 | 353 | 7.8 | 9.6 | 0.00 | 0.00 | 0.00 | 19 | 927.7 |
| 20260503233335 | 68 | 307 | 1.7 | 12.2 | 0.00 | 0.00 | 0.00 | 20 | 927.7 |
| 20260503232831 | 68 | 321 | 4.3 | 9.6 | 0.00 | 0.00 | 0.00 | 20 | 927.5 |
| 20260503232329 | 67 | 270 | 4.3 | 6.1 | 0.00 | 0.00 | 0.00 | 19 | 927.3 |
| 20260503231827 | 68 | 318 | 4.3 | 8.7 | 0.00 | 0.00 | 0.00 | 20 | 927.7 |
| 20260503231323 | 69 | 322 | 7.0 | 11.3 | 0.00 | 0.00 | 0.00 | 19 | 927.1 |
| 20260503230819 | 67 | 314 | 0.0 | 5.2 | 0.00 | 0.00 | 0.00 | 19 | 927.3 |
| 20260503230316 | 67 | 359 | 0.0 | 4.3 | 0.00 | 0.00 | 0.00 | 19 | 927.5 |
| 20260503225814 | 67 | 357 | 0.9 | 5.2 | 0.00 | 0.00 | 0.00 | 19 | 927.6 |
| 20260503225309 | 68 | 356 | 5.2 | 13.0 | 0.00 | 0.00 | 0.00 | 18 | 927.6 |
| 20260503224806 | 68 | 353 | 2.6 | 5.2 | 0.00 | 0.00 | 0.00 | 17 | 927.6 |
| 20260503224304 | 68 | 325 | 7.8 | 14.8 | 0.00 | 0.00 | 0.00 | 17 | 927.6 |
| 20260503223801 | 69 | 272 | 4.3 | 11.3 | 0.00 | 0.00 | 0.00 | 17 | 927.7 |
| 20260503223259 | 68 | 298 | 5.2 | 7.8 | 0.00 | 0.00 | 0.00 | 17 | 927.7 |
| 20260503222755 | 68 | 258 | 4.3 | 7.0 | 0.00 | 0.00 | 0.00 | 17 | 927.7 |
| 20260503222253 | 68 | 262 | 3.5 | 7.8 | 0.00 | 0.00 | 0.00 | 17 | 927.8 |
| 20260503221751 | 68 | 282 | 0.0 | 8.7 | 0.00 | 0.00 | 0.00 | 18 | 927.8 |
| 20260503221249 | 70 | 316 | 0.0 | 4.3 | 0.00 | 0.00 | 0.00 | 17 | 927.8 |
| 20260503220745 | 68 | 2 | 0.9 | 7.8 | 0.00 | 0.00 | 0.00 | 18 | 928.1 |
| 20260503220242 | 68 | 332 | 5.2 | 13.0 | 0.00 | 0.00 | 0.00 | 18 | 928.1 |
| 20260503215738 | 69 | 297 | 7.0 | 8.7 | 0.00 | 0.00 | 0.00 | 17 | 928.1 |
| 20260503215236 | 68 | 338 | 4.3 | 12.2 | 0.00 | 0.00 | 0.00 | 17 | 928.1 |
| 20260503214734 | 68 | 263 | 0.0 | 7.8 | 0.00 | 0.00 | 0.00 | 18 | 928.5 |
| 20260503214230 | 67 | 283 | 5.2 | 7.0 | 0.00 | 0.00 | 0.00 | 17 | 928.1 |
| 20260503213728 | 68 | 304 | 2.6 | 8.7 | 0.00 | 0.00 | 0.00 | 17 | 928.4 |
| 20260503213225 | 68 | 303 | 0.0 | 5.2 | 0.00 | 0.00 | 0.00 | 17 | 928.4 |
| 20260503212722 | 68 | 321 | 5.2 | 12.2 | 0.00 | 0.00 | 0.00 | 17 | 928.6 |
| 20260503212220 | 68 | 59 | 0.9 | 4.3 | 0.00 | 0.00 | 0.00 | 18 | 928.4 |
| 20260503211717 | 68 | 339 | 5.2 | 7.8 | 0.00 | 0.00 | 0.00 | 19 | 928.7 |
| 20260503211213 | 68 | 325 | 4.3 | 8.7 | 0.00 | 0.00 | 0.00 | 17 | 928.8 |
| 20260503210709 | 68 | 231 | 3.5 | 5.2 | 0.00 | 0.00 | 0.00 | 18 | 928.9 |
| 20260503210206 | 68 | 275 | 4.3 | 11.3 | 0.00 | 0.00 | 0.00 | 18 | 928.8 |
| 20260503205701 | 67 | 112 | 2.6 | 7.8 | 0.00 | 0.00 | 0.00 | 18 | 928.7 |
| 20260503205158 | 69 | 182 | 4.3 | 6.1 | 0.00 | 0.00 | 0.00 | 18 | 929.1 |
| 20260503204654 | 69 | 64 | 0.0 | 1.7 | 0.00 | 0.00 | 0.00 | 16 | 928.7 |
| 20260503204152 | 67 | 248 | 3.5 | 4.3 | 0.00 | 0.00 | 0.00 | 17 | 929.1 |
| 20260503203649 | 69 | 243 | 4.3 | 7.8 | 0.00 | 0.00 | 0.00 | 18 | 929.2 |
| 20260503203147 | 67 | 294 | 6.1 | 7.8 | 0.00 | 0.00 | 0.00 | 19 | 928.7 |
| 20260503202644 | 68 | 26 | 7.8 | 13.0 | 0.00 | 0.00 | 0.00 | 18 | 929.1 |
| 20260503202142 | 69 | 203 | 5.2 | 7.0 | 0.00 | 0.00 | 0.00 | 18 | 929.2 |
| 20260503201640 | 69 | 7 | 0.0 | 0.9 | 0.00 | 0.00 | 0.00 | 17 | 929.2 |
| 20260503201137 | 69 | 225 | 0.9 | 4.3 | 0.00 | 0.00 | 0.00 | 16 | 929.4 |
| 20260503200633 | 69 | 57 | 0.0 | 1.7 | 0.00 | 0.00 | 0.00 | 17 | 929.4 |
| 20260503200129 | 69 | 207 | 6.1 | 9.6 | 0.00 | 0.00 | 0.00 | 18 | 929.3 |
| 20260503195627 | 69 | 133 | 0.0 | 0.9 | 0.00 | 0.00 | 0.00 | 19 | 929.4 |
| 20260503195123 | 69 | 98 | 0.9 | 2.6 | 0.00 | 0.00 | 0.00 | 18 | 929.6 |
| 20260503194621 | 68 | 91 | 0.0 | 1.7 | 0.00 | 0.00 | 0.00 | 18 | 929.5 |
| 20260503194116 | 68 | 68 | 0.0 | 1.7 | 0.00 | 0.00 | 0.00 | 18 | 929.5 |
| 20260503193613 | 67 | 29 | 0.0 | 0.0 | 0.00 | 0.00 | 0.00 | 19 | 929.7 |
| 20260503193108 | 65 | 32 | 0.0 | 5.2 | 0.00 | 0.00 | 0.00 | 18 | 929.7 |
| 20260503192604 | 65 | 112 | 3.5 | 5.2 | 0.00 | 0.00 | 0.00 | 21 | 929.9 |
| 20260503192100 | 65 | 101 | 0.0 | 2.6 | 0.00 | 0.00 | 0.00 | 19 | 930.0 |
| 20260503191557 | 65 | 82 | 0.0 | 0.9 | 0.00 | 0.00 | 0.00 | 19 | 929.9 |
| 20260503191054 | 65 | 75 | 0.0 | 0.0 | 0.00 | 0.00 | 0.00 | 18 | 929.9 |
| 20260503190551 | 65 | 245 | 0.0 | 0.0 | 0.00 | 0.00 | 0.00 | 18 | 929.9 |
| 20260503190048 | 64 | 41 | 0.0 | 0.0 | 0.00 | 0.00 | 0.00 | 18 | 930.2 |
| 20260503185544 | 64 | 54 | 0.0 | 0.0 | 0.00 | 0.00 | 0.00 | 18 | 930.3 |
| 20260503185044 | 64 | 34 | 0.0 | 2.6 | 0.00 | 0.00 | 0.00 | 19 | 930.4 |
| 20260503184540 | 64 | 358 | 0.0 | 1.7 | 0.00 | 0.00 | 0.00 | 19 | 930.1 |
| 20260503184037 | 64 | 51 | 1.7 | 2.6 | 0.00 | 0.00 | 0.00 | 19 | 930.3 |
| 20260503183533 | 65 | 81 | 0.0 | 0.0 | 0.00 | 0.00 | 0.00 | 18 | 930.4 |
| 20260503183031 | 66 | 40 | 0.0 | 0.0 | 0.00 | 0.00 | 0.00 | 17 | 930.5 |
| 20260503182529 | 66 | 12 | 0.0 | 6.1 | 0.00 | 0.00 | 0.00 | 17 | 930.7 |
| 20260503182026 | 66 | 268 | 2.6 | 2.6 | 0.00 | 0.00 | 0.00 | 17 | 930.5 |
| 20260503181523 | 66 | 56 | 0.0 | 5.2 | 0.00 | 0.00 | 0.00 | 17 | 930.7 |
| 20260503181019 | 68 | 17 | 5.2 | 7.0 | 0.00 | 0.00 | 0.00 | 17 | 930.7 |
| 20260503180517 | 67 | 47 | 0.0 | 4.3 | 0.00 | 0.00 | 0.00 | 18 | 930.8 |
| 20260503180014 | 66 | 127 | 0.0 | 2.6 | 0.00 | 0.00 | 0.00 | 21 | 930.7 |
| 20260503175512 | 66 | 305 | 6.1 | 7.0 | 0.00 | 0.00 | 0.00 | 18 | 930.8 |
| 20260503175008 | 66 | 91 | 0.0 | 2.6 | 0.00 | 0.00 | 0.00 | 18 | 930.8 |
| 20260503174506 | 65 | 28 | 0.0 | 4.3 | 0.00 | 0.00 | 0.00 | 20 | 931.0 |
| 20260503174001 | 65 | 326 | 7.0 | 7.8 | 0.00 | 0.00 | 0.00 | 20 | 931.0 |
| 20260503173457 | 66 | 4 | 2.6 | 5.2 | 0.00 | 0.00 | 0.00 | 19 | 931.1 |
| 20260503172954 | 65 | 91 | 2.6 | 2.6 | 0.00 | 0.00 | 0.00 | 19 | 931.1 |
| 20260503172451 | 64 | 68 | 1.7 | 6.1 | 0.00 | 0.00 | 0.00 | 19 | 931.3 |
| 20260503171948 | 65 | 88 | 2.6 | 4.3 | 0.00 | 0.00 | 0.00 | 20 | 931.1 |
| 20260503171444 | 67 | 67 | 0.0 | 0.9 | 0.00 | 0.00 | 0.00 | 20 | 931.2 |
| 20260503170942 | 67 | 243 | 0.0 | 5.2 | 0.00 | 0.00 | 0.00 | 18 | 931.2 |
| 20260503170438 | 65 | 33 | 1.7 | 2.6 | 0.00 | 0.00 | 0.00 | 20 | 931.1 |
| 20260503150831 | 55 | 93 | 0.9 | 2.6 | 0.00 | 0.00 | 0.00 | 39 | 932.1 |
| 20260503150327 | 55 | 87 | 0.0 | 1.7 | 0.00 | 0.00 | 0.00 | 41 | 932.1 |
| 20260503140251 | 44 | 120 | 2.6 | 5.2 | 0.00 | 0.00 | 0.00 | 56 | 932.4 |
| 20260503131221 | 37 | 116 | 2.6 | 4.3 | 0.00 | 0.00 | 0.00 | 66 | 932.7 |
| 20260503130718 | 36 | 123 | 3.5 | 5.2 | 0.00 | 0.00 | 0.00 | 68 | 931.8 |
| 20260503130215 | 35 | 129 | 4.3 | 6.1 | 0.00 | 0.00 | 0.00 | 69 | 931.8 |
| 20260503120141 | 34 | 128 | 4.3 | 5.2 | 0.00 | 0.00 | 0.00 | 71 | 931.6 |
| 20260503110609 | 36 | 115 | 2.6 | 4.3 | 0.00 | 0.00 | 0.00 | 69 | 931.9 |
| 20260503110106 | 36 | 122 | 2.6 | 4.3 | 0.00 | 0.00 | 0.00 | 69 | 931.9 |
| 20260503090455 | 36 | 118 | 2.6 | 2.6 | 0.00 | 0.00 | 0.00 | 67 | 932.0 |
| 20260503081422 | 37 | 122 | 4.3 | 6.1 | 0.00 | 0.00 | 0.00 | 66 | 932.1 |
| 20260503080919 | 37 | 121 | 6.1 | 6.1 | 0.00 | 0.00 | 0.00 | 66 | 932.3 |
| 20260503080415 | 37 | 147 | 4.3 | 7.0 | 0.00 | 0.00 | 0.00 | 67 | 932.3 |
| 20260503072852 | 38 | 124 | 4.3 | 6.1 | 0.00 | 0.00 | 0.00 | 65 | 932.4 |
| 20260503072349 | 38 | 125 | 3.5 | 5.2 | 0.00 | 0.00 | 0.00 | 67 | 932.5 |
| 20260503071845 | 38 | 127 | 2.6 | 5.2 | 0.00 | 0.00 | 0.00 | 66 | 932.5 |
| 20260503071343 | 38 | 125 | 3.5 | 5.2 | 0.00 | 0.00 | 0.00 | 66 | 932.5 |
| 20260503070839 | 39 | 129 | 3.5 | 5.2 | 0.00 | 0.00 | 0.00 | 64 | 932.3 |
| 20260503070337 | 39 | 128 | 3.5 | 5.2 | 0.00 | 0.00 | 0.00 | 63 | 932.4 |
| 20260503060302 | 42 | 115 | 1.7 | 2.6 | 0.00 | 0.00 | 0.00 | 58 | 932.7 |
| 20260503054744 | 43 | 121 | 2.6 | 6.1 | 0.00 | 0.00 | 0.00 | 56 | 932.5 |
| 20260503054240 | 43 | 124 | 4.3 | 6.1 | 0.00 | 0.00 | 0.00 | 55 | 932.4 |
| 20260503053738 | 44 | 139 | 4.3 | 5.2 | 0.00 | 0.00 | 0.00 | 55 | 932.7 |
| 20260503053236 | 44 | 131 | 4.3 | 5.2 | 0.00 | 0.00 | 0.00 | 54 | 932.6 |
| 20260503052732 | 44 | 122 | 2.6 | 5.2 | 0.00 | 0.00 | 0.00 | 53 | 932.4 |